Tracking 19281 objects as of 16-Nov-2018
HD Live streaming from Space Station
objects crossing your sky now

USA 65

Track USA 65 now!
USA 65 is classified as:


NORAD ID: 20929
Int'l Code: 1990-095A
Perigee: 36,298.9 km
Apogee: 36,361.4 km
Inclination: 15.4 °
Period: 1,463.6 minutes
Semi major axis: 42701 km
RCS: Unknown
Launch date: November 13, 1990
Source: United States (US)
Launch site: AIR FORCE EASTERN TEST RANGE (AFETR)
aabbcc
Your satellite tracking list
Your tracking list is empty




NASA's NSSDC Master Catalog

Two Line Element Set (TLE):
1 20929U 90095A   18297.71604561 0.00000000  00000-0  00000-0 0    05
2 20929  15.4069   6.1608 0007321   5.4284 354.6060  0.98388222    02
Source of the keplerian elements: McCants